Location: Trementina
(35.4589°N, 104.4243°W)
Time: 22:18:33
(UTC+00:00)

X-37B - Visible Passes

Search period start: 26 November 2022 00:00
Search period end: 06 December 2022 00:00
Orbit: 277 x 277 km, 45.0° (Epoch: 01 November)

Date Brightness Start Highest point End Pass type
(mag) Time Alt. Az. Time Alt. Az. Time Alt. Az.
26 Nov 2.5 11:56:46 21° SE 11:56:46 21° SE 11:57:45 10° SE visible
27 Nov 3.0 11:57:47 13° SSE 11:57:47 13° SSE 11:58:11 10° SSE visible
05 Dec 1.7 00:58:32 10° SSW 01:00:20 21° SSE 01:00:20 21° SSE visible
